[[{"header":{"parameterUnit":"m.s-1","parameterCategory":1,"la1":30.2991,"la2":30.254,"lo1":-89.0895,"lo2":-89.0444,"dy":0.0017,"dx":0.0017,"nx":28,"ny":28,"refTime":"2024-03-03T03:00:00:Z","depth":0,"parameterNumber":2,"parameterNumberName":"U-component_of_WINDS"},"data":[0,0,0,0,0,0,0,0,0,0,0,0,0,0,0,0,0,0,0,0,0,0,0,0,0,0,0,0,0,0,0,0,0,0,0,0,0,0,0,0,0,0,0,0,0,0,0,0,0,0,0,0,0,0,0,0,0,0,-4.0573,-4.0573,0,-4.063,-4.063,-4.0631,-4.0579,-4.0577,-4.0575,-4.0573,-4.0631,-4.0634,-4.0638,0,0,0,0,0,0,0,0,0,0,0,0,0,-4.0419,-4.0422,-4.0573,-4.0573,-4.0574,-4.063,-4.063,-4.0631,-4.058,-4.0577,-4.0574,-4.0572,-4.063,-4.0634,-4.0638,0,0,0,0,0,0,0,0,0,0,0,0,0,-4.0482,-4.0423,-4.0572,-4.0555,-4.0554,-4.0629,-4.063,-4.0631,-4.058,-4.0577,-4.0574,-4.0571,-4.0628,-4.0633,-4.0639,-4.0734,0,0,-4.0655,-4.0657,0,0,0,0,0,0,0,0,-4.0478,-4.0488,-4.0557,-4.0556,-4.0555,-4.0594,-4.0597,-4.0666,-4.0581,-4.057,-4.0573,-4.0569,-4.0621,-4.0627,-4.0644,-4.0737,-4.0739,-4.0655,-4.0658,-4.0661,-4.0662,0,0,0,0,0,0,0,-4.0474,-4.0485,-4.0595,-4.0558,-4.0557,-4.0544,-4.055,-4.061,-4.0613,-4.0571,-4.0567,-4.0575,-4.062,-4.0639,-4.0645,-4.074,-4.0655,-4.066,-4.0663,-4.0665,-4.0914,-4.0918,0,0,0,0,0,0,-4.0472,-4.0482,-4.0593,-4.0597,-4.0508,-4.055,-4.0556,-4.0585,-4.0612,-4.0613,-4.0577,-4.0572,-4.0632,-4.0639,-4.0647,-4.076,-4.066,-4.0665,-4.0668,-4.0911,-4.0915,-4.0919,0,0,0,0,0,0,-4.0469,-4.0482,-4.0591,-4.0538,-4.0551,-4.0556,-4.0589,-4.0588,-4.0607,-4.0617,-4.0617,-4.0597,-4.063,-4.064,-4.0713,-4.0762,-4.0668,-4.0673,-4.0907,-4.0912,-4.0917,-4.0988,0,0,0,0,0,0,-4.0464,-4.0481,-4.0517,-4.054,-4.0554,-4.0656,-4.0592,-4.0591,-4.0616,-4.061,-4.0635,-4.0636,-4.0628,-4.0705,-4.0718,-4.0767,-4.0677,-4.0902,-4.0909,-4.0915,-4.0981,-4.0995,-4.1006,0,0,0,0,0,-4.0459,-4.0535,-4.0519,-4.0533,-4.0599,-4.0659,-4.0667,-4.0657,-4.062,-4.0656,-4.0663,-4.0635,-4.0755,-4.0713,-4.0727,-4.0778,-4.0899,-4.0907,-4.0915,-4.0975,-4.0992,-4.1006,0,0,0,0,0,0,-4.0517,-4.0537,-4.052,-4.0605,-4.0631,-4.065,-4.0695,-4.0675,-4.0711,-4.0703,-4.0689,-4.0695,-4.0772,-4.0783,-4.0736,-4.0873,-4.0821,-4.0832,-4.0862,-4.0878,-4.0891,-4.0885,-4.0681,0,0,0,0,0,-4.054,-4.0587,-4.0602,-4.0675,-4.0689,-4.069,-4.0716,-4.0706,-4.0731,-4.0742,-4.0753,-4.0779,-4.0823,-4.0851,-4.0892,-4.0983,-4.0988,-4.1026,-4.1038,-4.1049,-4.1058,-4.1107,-4.1123,-4.0945,-4.0945,-4.0944,0,0,-4.0587,-4.0604,-4.0634,-4.0687,-4.0706,-4.0754,-4.0699,-4.0753,-4.0789,-4.075,-4.0819,-4.0829,-4.0857,-4.094,-4.0977,-4.0951,-4.1109,-4.1059,-4.1067,-4.107,-4.1116,-4.1133,-4.1148,-4.095,-4.0949,-4.0948,0,0,-4.0697,-4.0716,-4.0779,-4.0799,-4.0828,-4.0829,-4.0844,-4.0867,-4.0872,-4.0942,-4.0914,-4.0957,-4.1032,-4.1053,-4.1074,-4.1195,-4.1171,-4.1209,-4.1274,-4.1323,-4.1337,-4.1349,-4.1391,-4.1407,-4.1219,-4.1219,-4.1219,0,-4.0752,-4.0824,-4.0814,-4.0869,-4.0894,-4.0862,-4.0926,-4.0946,-4.0987,-4.1005,-4.0976,-4.107,-4.1087,-4.1174,-4.1204,-4.1222,-4.1239,-4.1205,-4.1336,-4.1348,-4.1359,-4.1399,-4.1415,-4.1223,-4.1223,-4.1222,-4.1222,0,-4.0889,-4.094,-4.0988,-4.1029,-4.1059,-4.1118,-4.1117,-4.1149,-4.1138,-4.1142,-4.1214,-4.1233,-4.1277,-4.1298,-4.1287,-4.1384,-4.1367,-4.1338,-4.1285,-4.1381,-4.1418,-4.1434,-4.1229,-4.1228,-4.1227,-4.1226,0,0,-4.1035,-4.1071,-4.1088,-4.1107,-4.1138,-4.1177,-4.1236,-4.1279,-4.1307,-4.1337,-4.1386,-4.1451,-4.1425,-4.1448,-4.144,-4.1482,-4.1577,-4.1447,-4.1448,-4.1469,-4.1684,-4.1704,-4.1722,-4.1562,-4.1565,-4.1567,-4.1681,0,-4.1145,-4.1247,-4.124,-4.1336,-4.1383,-4.1355,-4.1406,-4.1431,-4.1438,-4.1478,-4.1485,-4.1531,-4.1493,-4.1507,-4.1548,-4.1556,-4.1619,-4.1548,-4.1606,-4.1608,-4.1597,-4.1742,-4.1764,-4.187,-4.1696,-4.1698,-4.17,0,-4.1286,-4.1322,-4.1423,-4.1448,-4.1467,-4.1513,-4.1553,-4.1593,-4.1621,-4.1623,-4.1651,-4.1636,-4.1695,-4.1644,-4.1726,-4.1678,-4.1702,-4.171,-4.1714,-4.1717,-4.1658,-4.1747,-4.1904,-4.1919,-4.1723,-4.1722,-4.172,0,-4.138,-4.1454,-4.1524,-4.1541,-4.1572,-4.1605,-4.162,-4.1645,-4.1672,-4.1708,-4.1725,-4.1767,-4.179,-4.1823,-4.182,-4.1783,-4.1904,-4.1852,-4.1906,-4.1906,-4.193,-4.1928,-4.2091,-4.195,-4.1949,-4.1949,-4.1949,0,-4.1502,-4.1565,-4.1566,-4.1609,-4.1678,-4.1671,-4.174,-4.1751,-4.1775,-4.1819,-4.1799,-4.1841,-4.1836,-4.1878,-4.1877,-4.1945,-4.1956,-4.1958,-4.1957,-4.1959,-4.1958,-4.1972,-4.1964,-4.1953,-4.1952,-4.1952,-4.1951,0,-4.1617,-4.1621,-4.1695,-4.172,-4.1728,-4.1778,-4.1799,-4.1839,-4.1845,-4.1902,-4.1915,-4.1923,-4.1973,-4.1974,-4.2031,-4.203,-4.2112,-4.2104,-4.2102,-4.21,-4.2153,-4.2147,-4.2328,-4.2351,-4.2197,-4.2199,-4.22,0,-4.1694,-4.1741,-4.1772,-4.18,-4.1817,-4.1864,-4.1891,-4.1887,-4.1917,-4.1954,-4.1991,-4.2038,-4.2076,-4.2156,-4.2167,-4.2211,-4.2202,-4.2263,-4.2208,-4.2209,-4.2201,-4.2197,-4.2201,-4.2272,-4.2274,-4.2275,-4.2276,0,-4.1829,-4.1829,-4.187,-4.1912,-4.1946,-4.198,-4.201,-4.2035,-4.2035,-4.2069,-4.212,-4.2149,-4.2208,-4.2255,-4.2298,-4.2313,-4.2295,-4.2294,-4.2309,-4.231,-4.2306,-4.2307,-4.2129,-4.2289,-4.2288,-4.2287,-4.2286,-4.2286,-4.1925,-4.1966,-4.1994,-4.2041,-4.2064,-4.2094,-4.2133,-4.2145,-4.2187,-4.2234,-4.223,-4.2286,-4.2315,-4.237,-4.2389,-4.2433,-4.2412,-4.2434,-4.2439,-4.2443,-4.2448,-4.2302,-4.2441,-4.2441,-4.2441,-4.244,-4.244,0,-4.2057,-4.2075,-4.2118,-4.2162,-4.2199,-4.2181,-4.2214,-4.2246,-4.2296,-4.2325,-4.2363,-4.2421,-4.2468,-4.2484,-4.2529,-4.2562,-4.2554,-4.2573,-4.257,-4.2573,-4.2465,-4.2447,-4.2579,-4.2579,-4.2579,-4.2578,-4.2578,-4.2578,-4.213,-4.2198,-4.2202,-4.2282,-4.2299,-4.2354,-4.2375,-4.2402,-4.2425,-4.2491,-4.253,-4.2541,-4.2565,-4.2612,-4.2654,-4.2658,-4.2675,-4.2697,-4.2697,-4.2595,-4.2581,-4.2568,-4.255,-4.2701,-4.2702,-4.2801,-4.2802,-4.2803]},{"header":{"parameterUnit":"m.s-1","parameterCategory":1,"la1":30.2991,"la2":30.254,"lo1":-89.0895,"lo2":-89.0444,"dy":0.0017,"dx":0.0017,"nx":28,"ny":28,"refTime":"2024-03-03T03:00:00:Z","depth":0,"parameterNumber":3,"parameterNumberName":"V-component_of_WINDS"},"data":[0,0,0,0,0,0,0,0,0,0,0,0,0,0,0,0,0,0,0,0,0,0,0,0,0,0,0,0,0,0,0,0,0,0,0,0,0,0,0,0,0,0,0,0,0,0,0,0,0,0,0,0,0,0,0,0,0,0,1.1838,1.1839,0,1.187,1.187,1.187,1.188,1.188,1.188,1.1879,1.1911,1.1912,1.1913,0,0,0,0,0,0,0,0,0,0,0,0,0,1.1788,1.1789,1.1838,1.1839,1.1839,1.187,1.187,1.1871,1.188,1.188,1.188,1.1879,1.1911,1.1912,1.1913,0,0,0,0,0,0,0,0,0,0,0,0,0,1.1813,1.1789,1.1838,1.1848,1.1849,1.187,1.187,1.1871,1.188,1.188,1.1879,1.1879,1.191,1.1912,1.1913,1.1927,0,0,1.1918,1.1918,0,0,0,0,0,0,0,0,1.1812,1.1815,1.1846,1.1847,1.1848,1.1871,1.1864,1.1889,1.188,1.1868,1.1879,1.1879,1.1898,1.19,1.1907,1.1928,1.193,1.1918,1.1919,1.1919,1.192,0,0,0,0,0,0,0,1.181,1.1814,1.1851,1.1846,1.1848,1.185,1.1854,1.1869,1.1884,1.1869,1.187,1.1873,1.1898,1.1905,1.1907,1.193,1.1918,1.1919,1.192,1.192,1.1967,1.1968,0,0,0,0,0,0,1.1807,1.1812,1.185,1.1852,1.1829,1.1852,1.1855,1.1864,1.1884,1.1886,1.1874,1.1874,1.1903,1.1906,1.1908,1.1927,1.1919,1.1921,1.1921,1.1967,1.1967,1.1968,0,0,0,0,0,0,1.1806,1.181,1.1849,1.1832,1.1837,1.1853,1.1862,1.1864,1.1871,1.1887,1.189,1.1878,1.1903,1.1906,1.1923,1.1929,1.1921,1.1923,1.1966,1.1967,1.1967,1.1964,0,0,0,0,0,0,1.1804,1.1809,1.1814,1.1832,1.1838,1.1862,1.1862,1.1865,1.1874,1.1874,1.1892,1.1894,1.1903,1.1921,1.1924,1.193,1.1924,1.1966,1.1967,1.1967,1.1964,1.1965,1.1965,0,0,0,0,0,1.1802,1.1812,1.1815,1.1819,1.1845,1.1862,1.1866,1.1875,1.1874,1.188,1.189,1.1894,1.1927,1.1922,1.1926,1.1933,1.1966,1.1966,1.1967,1.1964,1.1965,1.1965,0,0,0,0,0,0,1.1793,1.1814,1.1818,1.1833,1.1846,1.1864,1.1871,1.1876,1.1889,1.1889,1.19,1.1904,1.192,1.1928,1.1922,1.1949,1.1947,1.1948,1.1943,1.1944,1.1944,1.1942,1.1925,0,0,0,0,0,1.1793,1.1806,1.1823,1.1835,1.1842,1.1855,1.1863,1.187,1.1883,1.1889,1.19,1.1913,1.1927,1.1936,1.1949,1.1965,1.197,1.1972,1.1973,1.1973,1.1975,1.1986,1.1988,1.197,1.197,1.197,0,0,1.1793,1.1806,1.1813,1.1834,1.1845,1.1858,1.186,1.1873,1.1883,1.1891,1.1907,1.1916,1.1932,1.1949,1.1957,1.1956,1.1981,1.1975,1.1975,1.1976,1.1987,1.1989,1.199,1.1971,1.1971,1.1971,0,0,1.18,1.181,1.1822,1.1834,1.185,1.186,1.1862,1.188,1.1887,1.1904,1.191,1.1923,1.1945,1.1957,1.1966,1.1979,1.1983,1.1983,1.1986,1.1997,1.1999,1.2,1.2006,1.2008,1.1984,1.1984,1.1984,0,1.1797,1.1817,1.1828,1.1842,1.1851,1.186,1.1873,1.1883,1.1903,1.1909,1.1909,1.1939,1.195,1.1971,1.1974,1.198,1.1985,1.1981,1.1998,1.1999,1.2,1.2006,1.2008,1.1984,1.1984,1.1984,1.1984,0,1.1814,1.1828,1.1836,1.1856,1.1867,1.188,1.1893,1.1903,1.1909,1.1918,1.1937,1.195,1.1967,1.1973,1.1978,1.1995,1.1994,1.1995,1.1994,1.2002,1.2008,1.201,1.1984,1.1984,1.1984,1.1984,0,0,1.1815,1.1842,1.1845,1.1855,1.1875,1.1886,1.1901,1.1918,1.1927,1.194,1.1953,1.1974,1.1975,1.1985,1.1993,1.2002,1.2014,1.2002,1.2003,1.2005,1.2035,1.2034,1.2037,1.2017,1.2017,1.2017,1.2034,0,1.1824,1.185,1.1862,1.1883,1.1897,1.1906,1.1919,1.1933,1.1943,1.1956,1.1967,1.1982,1.1982,1.1989,1.1998,1.201,1.202,1.2009,1.2029,1.203,1.2026,1.2039,1.2038,1.2053,1.2036,1.2036,1.2037,0,1.1839,1.1854,1.1877,1.1897,1.1904,1.1915,1.1933,1.1945,1.1962,1.1969,1.1981,1.1988,1.2005,1.2002,1.2025,1.2018,1.2027,1.2034,1.2035,1.2037,1.2034,1.2043,1.2058,1.206,1.204,1.204,1.2039,0,1.1839,1.1865,1.1882,1.1891,1.1914,1.1922,1.1933,1.1949,1.196,1.1975,1.1983,1.2,1.2009,1.2023,1.2035,1.2032,1.2058,1.2056,1.2064,1.2064,1.207,1.2069,1.2087,1.2074,1.2074,1.2074,1.2074,0,1.1849,1.1862,1.1883,1.1894,1.191,1.1923,1.1939,1.195,1.1965,1.1979,1.1988,1.2,1.2015,1.203,1.204,1.2058,1.2062,1.2069,1.2071,1.2068,1.2068,1.2075,1.2074,1.2075,1.2075,1.2074,1.2074,0,1.1851,1.1865,1.1885,1.1906,1.1912,1.1924,1.1942,1.1954,1.1965,1.1982,1.1987,1.2004,1.2022,1.2036,1.2059,1.2066,1.2086,1.2088,1.2081,1.2082,1.2091,1.209,1.2114,1.2118,1.2102,1.2102,1.2102,0,1.1856,1.1867,1.1891,1.1901,1.1912,1.1928,1.1939,1.1953,1.1964,1.1986,1.1995,1.2014,1.203,1.2059,1.2073,1.2092,1.2095,1.2102,1.2098,1.2095,1.2096,1.2096,1.2098,1.2103,1.2103,1.2103,1.2103,0,1.1865,1.1872,1.1888,1.1908,1.1921,1.1937,1.1953,1.196,1.1978,1.199,1.2009,1.2022,1.2047,1.2066,1.2086,1.2097,1.2103,1.2104,1.2108,1.2105,1.2101,1.2105,1.2083,1.2104,1.2104,1.2104,1.2104,1.2103,1.187,1.1881,1.19,1.1918,1.1932,1.1947,1.196,1.1973,1.199,1.2011,1.2019,1.2039,1.2057,1.2085,1.2097,1.2113,1.2113,1.2117,1.2119,1.212,1.212,1.2098,1.2117,1.2117,1.2117,1.2117,1.2117,0,1.188,1.1894,1.191,1.1933,1.1948,1.1953,1.1972,1.1984,1.2002,1.2018,1.2035,1.2058,1.2077,1.2094,1.2114,1.2125,1.2128,1.2129,1.2129,1.2132,1.2118,1.2114,1.2126,1.2126,1.2126,1.2126,1.2126,1.2126,1.1887,1.1907,1.1917,1.1944,1.1958,1.1978,1.1988,1.2003,1.2017,1.2042,1.2059,1.207,1.2088,1.211,1.2128,1.2133,1.214,1.2141,1.2147,1.2134,1.2133,1.2132,1.2128,1.2142,1.2143,1.2159,1.2159,1.2159]}]]